Regional Weather Roundup
Issued by NWS

Home | Current Version | Previous Version | Graphics & Text | Print | Product List | Glossary On
Versions: 1 2 3 4 5 6 7 8 9 10 11 12 13 14 15 16 17 18 19 20 21 22 23 24 25 26 27 28 29 30 31 32 33 34 35 36 37 38 39 40 41 42 43 44 45 46 47 48 49 50
435
ASUS45 KPSR 162310
RWRAZ

ARIZONA HOURLY REGIONAL WEATHER ROUNDUP
NATIONAL WEATHER SERVICE PHOENIX AZ
400 PM MST MON OCT 16 2017

NOTE: FAIR INDICATES FEW OR NO CLOUDS BELOW 12,000 FEET WITH NO
SIGNIFICANT WEATHER AND/OR OBSTRUCTIONS TO VISIBILITY.

AZZ001>003-036-170000-
NORTHWEST ARIZONA

CITY           SKY/WX    TMP DP  RH WIND       PRES   REMARKS
BULLHEAD CITY  MOSUNNY   90   5   4 N20G25    30.03F
KINGMAN        MOSUNNY   84  17   8 N7        30.20F
$$

AZZ004>008-015-016-018-170000-
NORTH CENTRAL ARIZONA

CITY           SKY/WX    TMP DP  RH WIND       PRES   REMARKS
GRAND CANYON   MOSUNNY   73  -2   5 SW6       30.40S
WILLIAMS       PTSUNNY   73  21  14 SW6G13    30.39S
PRESCOTT       MOSUNNY   80  27  14 VRB3      30.27F
FLAGSTAFF      MOSUNNY   70  15  12 E7        30.41R
PAYSON           N/A     81  27  13 SW8G15    30.29S
PAGE           SUNNY     69   6   8 CALM      30.29F
$$

AZZ009>014-017-170000-
NORTHEAST ARIZONA

CITY           SKY/WX    TMP DP  RH WIND       PRES   REMARKS
WINSLOW        SUNNY     79  12   8 NW8       30.29F
SAINT JOHNS    SUNNY     79  17  10 VRB3      30.30F
WINDOW ROCK    SUNNY     75  18  11 MISG      30.38S
SHOW LOW       SUNNY     75  19  12 S8        30.36S
$$

AZZ540-542>544-546-548-170000-
GREATER PHOENIX AREA

CITY           SKY/WX    TMP DP  RH WIND       PRES   REMARKS
PHOENIX        MOSUNNY   97  36  12 VRB5      29.97F
BUCKEYE        SUNNY     95  52  23 SE6       29.99F
LUKE AFB       SUNNY     96  33  11 S5        29.97F
DEER VALLEY    SUNNY     95  33  11 S3        30.00F
SCOTTSDALE     SUNNY     97  33  10 SE6       30.01F
MESA-FALCON    MOSUNNY   97  37  12 VRB5      30.00F
MESA-GATEWAY   MOSUNNY   97  41  14 S6        30.00F
CHANDLER       SUNNY     97  37  12 N5        29.99F
$$

AZZ539-553-170000-
SOUTHWEST MARICOPA COUNTY AND PINAL COUNTY

CITY           SKY/WX    TMP DP  RH WIND       PRES   REMARKS
CASA GRANDE    NOT AVBL
GILA BEND      MOSUNNY   99  36  11 NE6       29.95F
$$

AZZ503-504-507>509-170000-
SOUTHEAST ARIZONA

CITY           SKY/WX    TMP DP  RH WIND       PRES   REMARKS
TUCSON         SUNNY     93  42  17 E7        30.08F
DAVIS-MONTHAN  SUNNY     93  39  15 VRB3      30.06S
RYAN FIELD     SUNNY     93  39  15 NE7       30.06F
NOGALES        SUNNY     90  44  20 CALM      30.14S
SIERRA VISTA   SUNNY     84  43  23 SE10      30.24F
DOUGLAS        SUNNY     84  44  24 E13       30.20F
SAFFORD        SUNNY     85  43  22 S9        30.16F
$$

AZZ532-170000-
SOUTHWEST ARIZONA

CITY           SKY/WX    TMP DP  RH WIND       PRES   REMARKS
YUMA           SUNNY     96  19   6 NW10      29.96F
$$

CAZ041-043-047-048-061-525>527-560>570-170000-
SOUTHERN CALIFORNIA

CITY           SKY/WX    TMP DP  RH WIND       PRES   REMARKS
DOWNTOWN L.A.  SUNNY     89  34  14 W7        29.97F
L.A. AIRPORT   MOSUNNY   81  49  32 W18       29.99S
SAN DIEGO      MOSUNNY   83  47  28 NW13      29.97S
BURBANK        SUNNY     97  21   6 NW8       29.98F
ONTARIO        MOSUNNY   97  22   7 W9        30.00S
RIVERSIDE      SUNNY     97  31   9 VRB6      29.99S
PALM SPRINGS   SUNNY    100  13   4 SE7       29.99F
EL CENTRO NAS  MOSUNNY   97  12   4 NE7       29.97F
IMPERIAL       MOSUNNY   97  27   8 N6        29.95F
BLYTHE         SUNNY     95  15   5 N8        29.99F
NEEDLES        MOSUNNY   93   4   3 N13       30.05F
$$

NVZ020-UTZ003-170000-
SOUTHERN NEVADA-UTAH

CITY           SKY/WX    TMP DP  RH WIND       PRES   REMARKS
LAS VEGAS      MOSUNNY   83  10   6 CALM      30.15F
SALT LAKE CITY MOSUNNY   64  30  27 NW7       30.34F
$$

NMZ009-TXZ055-170000-
NEW MEXICO-WEST TEXAS

CITY           SKY/WX    TMP DP  RH WIND       PRES   REMARKS
ALBUQUERQUE    SUNNY     71  21  15 VRB5      30.35F
EL PASO        SUNNY     80  38  22 CALM      30.28F
$$


........................KEY........................
SKY/WX - SKY CONDITION/WEATHER
TMP    - TEMPERATURE IN FAHRENHEIT
DP     - DEW POINT IN FAHRENHEIT
RH     - RELATIVE HUMIDITY IN PERCENT
WIND   - DIRECTION AND SPEED IN MILES PER HOUR (MPH)
VRB    - VARIABLE WIND DIRECTION
PRES   - MEAN SEA LEVEL PRESSURE IN INCHES OF MERCURY
         F - FALLING PRESSURE   R - RISING PRESSURE
         S - STEADY PRESSURE
VSB    - VISIBILITY IN MILES
HX     - HEAT INDEX IN FAHRENHEIT
WCI    - WIND CHILL INDEX IN FAHRENHEIT
TC     - TEMPERATURE IN CELSIUS WHICH IS ALSO KNOWN AS
         TEMPERATURE IN CENTIGRADE
AFB    - AIR FORCE BASE
         LUKE AFB IS LUKE AIR FORCE BASE
         DAVIS-MONTHAN IS DAVIS-MONTHAN AIR FORCE BASE
NAS    - NAVAL AIR STATION
         EL CENTRO NAS IS EL CENTRO NAVAL AIR STATION
N/A    - NOT AVAILABLE





USA.gov is the U.S. government's official web portal to all federal, state and local government web resources and services.